STARLINK-5921, 55926

Orbit data source: Space-Track

STARLINK-5921, 55926 is a payload satellite owned by SpaceX/Seattle (US) in LEO that was launched on Fri, 17 Mar 2023 UTC via an FALCON 9 launch vehicle from the Air Force Western Test Range (AFWTR). Payload-class satellites include a variety of spacecraft equipped with specific instruments for various scientific and technological missions. These include communications satellites like Starlink; space stations such as the ISS; scientific satellites like the Hubble; Earth observation satellites from companies like Planet Labs, Umbra, and HawkEye 360; GPS; miniature CubeSats for education and research; and military/defense satellites.

Loading next visibility...
Identifier
55926, 2023-037N
Orbit
LEO
Country
Flag of USUS
Related business
Manufacturer
SpaceX/Seattle
Mission
Operational Commercial Communications
Bus & Motor
STARLINK, Unknown motor
Mass
305 kg wet, ~290 kg dry
Launch date (UTC)
2023-03-17 (3 years ago)
Launch vehicle
FALCON 9
Launch site
Air Force Western Test Range (AFWTR)
Object type
Payload
Rocket body
Debris
Shape & HBR
Box + 1 Pan, 10.1 m
Radar Cross Section
11.087 m², Large (>1 m²)

Expand to show TLE details & history
Last TLE update: 19 hours ago

TLE from 19 hours ago
0 STARLINK-5921
1 55926U 23037N   25348.81395914  .00000430  00000-0  43850-4 0  9995
2 55926  69.9995 138.5787 0003138 269.2010  90.8789 14.98330646151260
Epoch: 2025-12-14T19:32Z
TLE epoch observation values (Epoch: 2025-12-14T19:32:06.069Z)
Latitude
-0.00008°
Longitude
121.8319°
Altitude
574.512 km
Speed
7.574 km/s
True Right ascension
09h 14m 18s
True Declination
0° 00' 00"
Sunlit
Object was in full shadow at epoch
Visualization orbit readout
Latitude
Unknown
Longitude
Unknown
Altitude
Unknown
Speed
Unknown
Apparent Right ascension
Unknown
Apparent Declination
Unknown
Sunlit
N/A
Visualization observer readout
Local Sidereal Time
13:19:02
Azimuth
Unknown
Elevation
Unknown
Doppler factor
Unknown
Orbital elements
Apogee altitude
572.183 km
Perigee altitude
567.822 km
Semi-major axis
6,948.139 km
Eccentricity
0.00031
Inclination
69.9995°
RAAN
138.5787°
Arg. of periapsis
269.201°
True anomaly
90.91485°
Mean anomaly
90.8789°
Eccentric anomaly
90.89688°
Mean motion
3.74749 °/min
Orbital period
96.06 mins
BSTAR
0.00004385
Loading maneuver chart data...
Computing Atmospheric mass density...
Loading historical data...
Loading historical data...
Loading historical data...
Loading historical data...
Loading historical data...
Loading historical data...
Loading historical data...

Documentation

Showing up to 5 results
|